Miscellaneous Local Product
Issued by NWS Hastings, NE

Home | Current Version | Previous Version | Graphics & Text | Print | Product List | Glossary On
Versions: 1 2 3 4 5 6 7 8 9 10 11 12 13 14 15 16 17 18 19 20 21 22 23 24 25 26 27 28 29 30 31 32 33 34 35 36 37 38 39 40 41 42 43 44 45 46 47 48 49 50
000
AXUS43 KGID 221802
MISGRI

GID CWA HOURLY WEATHER ROUNDUP
NATIONAL WEATHER SERVICE HASTINGS NE
100 PM CDT WED OCT 22 2014

NOTE: "FAIR" INDICATES FEW OR NO CLOUDS BELOW 12,000 FEET WITH NO
SIGNIFICANT WEATHER AND/OR OBSTRUCTIONS TO VISIBILITY.

...SOUTH CENTRAL NEBRASKA...

CITY           SKY/WX    TMP DP  RH WIND       PRES   REMARKS
GRAND ISLAND   CLOUDY    72  55  55 SW17      30.01S
HASTINGS       PTSUNNY   73  52  47 S15G24    30.00F
KEARNEY        CLOUDY    64  55  72 S16       30.02F
ORD            CLOUDY    66  53  63 S8        29.99S
YORK           FAIR      75  54  46 S21       30.02F
AURORA         FAIR      76  51  41 S17       30.00F
LEXINGTON      CLOUDY    64  54  68 SW7       30.02S
HOLDREGE       LGT RAIN  61  56  83 S13       30.01F
HEBRON         FAIR      76  52  42 S16G24    30.03F

...NEBRASKA PANHANDLE...

CITY           SKY/WX    TMP DP  RH WIND       PRES   REMARKS
CHADRON        SUNNY     59  37  44 NW6       30.06S
ALLIANCE       SUNNY     62  50  65 NW16      30.06S
SCOTTSBLUFF    SUNNY     62  35  36 NW14G22   30.09S
SIDNEY         SUNNY     63  36  36 NW15G24   30.09S

...WESTERN AND NORTH CENTRAL NEBRASKA...

CITY           SKY/WX    TMP DP  RH WIND       PRES   REMARKS
VALENTINE      PTSUNNY   58  47  66 NW12      30.02R
AINSWORTH      CLOUDY    54  49  83 NW10      30.02R
ONEILL         CLOUDY    66  54  66 NW17      29.99S
BROKEN BOW     HVY RAIN  60  56  86 E6        30.01S FOG
IMPERIAL       MOSUNNY   69  49  48 N7        30.04S
NORTH PLATTE   CLOUDY    62  53  72 E5        30.03R
MCCOOK         CLOUDY    63  51  65 E3        30.01F

...EASTERN NEBRASKA...

CITY           SKY/WX    TMP DP  RH WIND       PRES   REMARKS
NORFOLK        FAIR      74  53  48 S16G25    29.97F
SO SIOUX CITY  FAIR      71  50  47 S14G22    30.02F
TEKAMAH        FAIR      73  51  46 S15       30.04F
COLUMBUS       FAIR      75  52  43 S17G23    30.02F
ALBION         PTSUNNY   70  55  57 S17       29.99F
OMAHA EPPLEY   FAIR      70  50  49 S18       30.07F
OFFUTT AFB     FAIR      70  53  54 SE16      30.07F
MILLARD        FAIR      69  52  54 SE12      30.07S
LINCOLN        FAIR      78  54  43 S20       30.04F
NEBRASKA CITY  FAIR      70  47  43 S15       30.09F
BEATRICE       FAIR      76  55  48 S17G23    30.05F
FALLS CITY     LGT RAIN  72  54  53 S16       30.10F

...NORTHERN KANSAS...

CITY           SKY/WX    TMP DP  RH WIND       PRES   REMARKS
GOODLAND       MOSUNNY   69  47  45 N16       30.06R
HILL CITY      PTSUNNY   69  55  60 S12       30.01F
NORTON         LGT RAIN  61  55  82 SW5       30.01
PHILLIPSBURG   TSTM      64  63  94 S7        30.01F
SMITH CENTER   CLOUDY    73  52  46 S16G22    30.01F
BELOIT         SUNNY     79  52  38 S20G25    30.01F
HAYS           CLOUDY    68  55  64 S15       30.03F
RUSSELL        PTSUNNY   75  53  46 S17G30    30.02F
CONCORDIA      FAIR      76  56  49 S17G26    30.05F
SALINA         FAIR      77  55  46 S20G28    30.07F
TOPEKA         FAIR      73  57  57 SE12      30.13F



USA.gov is the U.S. government's official web portal to all federal, state and local government web resources and services.